This is the latest recevied weather packets stored in our database for station/object HP1MRA-15. If no packets are shown the sender has not sent any weather packets the latest 10 day(s).
| Time | Temp. | Humidity | Pressure | Rain* | Wind** | Luminosity | Snow |
|---|---|---|---|---|---|---|---|
| 1788553906 | 37.22° C | 58% | 999 hPa | 0 mm | - | - | - |
| 1788553906 | 37.22° C | 58% | 999 hPa | 0 mm | - | - | - |
| 1788553605 | 37.78° C | 57% | 999.1 hPa | 0 mm | - | - | - |
| 1788553304 | 38.33° C | 57% | 998.9 hPa | 0 mm | - | - | - |
| 1788553005 | 38.89° C | 57% | 998.9 hPa | 0 mm | - | - | - |
| 1788553004 | 38.89° C | 57% | 998.9 hPa | 0 mm | - | - | - |
| 1788552703 | 40° C | 56% | 998.9 hPa | 0 mm | - | - | - |
| 1788552402 | 40.56° C | 58% | 998.9 hPa | 0 mm | - | - | - |
| 1788552007 | 40.56° C | 58% | 999 hPa | 0 mm | - | - | - |
| 1788551706 | 40.56° C | 57% | 999.2 hPa | 0 mm | - | - | - |
| 1788551404 | 39.44° C | 58% | 999.2 hPa | 0 mm | - | - | - |
| 1788550917 | 38.89° C | 56% | 999.2 hPa | 0 mm | - | - | - |
| 1788550615 | 38.89° C | 58% | 999 hPa | 0 mm | - | - | - |
| 1788550318 | 38.33° C | 56% | 999.2 hPa | 0 mm | - | - | - |
| 1788550017 | 37.78° C | 56% | 999.4 hPa | 0 mm | - | - | - |
| 1788549718 | 37.78° C | 57% | 999.6 hPa | 0 mm | - | - | - |
| 1788549715 | 37.78° C | 57% | 999.6 hPa | 0 mm | - | - | - |
| 1788549417 | 37.22° C | 58% | 999.6 hPa | 0 mm | - | - | - |
| 1788549118 | 37.78° C | 58% | 999.6 hPa | 0 mm | - | - | - |
| 1788548817 | 37.78° C | 57% | 999.7 hPa | 0 mm | - | - | - |
| 1788548816 | 37.78° C | 57% | 999.6 hPa | 0 mm | - | - | - |
| 1788548517 | 37.78° C | 60% | 999.8 hPa | 0 mm | - | - | - |
| 1788548218 | 37.78° C | 61% | 999.8 hPa | 0 mm | - | - | - |
| 1788547917 | 37.22° C | 60% | 1000 hPa | 0 mm | - | - | - |
| 1788547914 | 37.22° C | 61% | 1000 hPa | 0 mm | - | - | - |
* Rain latest hour (hover to see other rain measurements)
** Current wind speed in m/s (hover to see current wind gust speed)